�������l�o���
Date,Time,MP-1(��Sv/h),MP-2(��Sv/h),MP-3(��Sv/h),MP-4(��Sv/h),MP-5(��Sv/h),MP-6(��Sv/h),MP-7(��Sv/h),����,����(m/s),���J
2021/08/01,00:00,0.156,0.143,0.225,0.219,0.222,0.121,0.077,�k�k��,5.9,��
2021/08/01,00:10,0.154,0.144,0.223,0.217,0.225,0.121,0.076,�k�k��,5.9,��
2021/08/01,00:20,0.155,0.143,0.226,0.217,0.225,0.121,0.076,�k�k��,6.1,�L
2021/08/01,00:30,0.156,0.142,0.224,0.219,0.223,0.121,0.078,�k�k��,5.4,��
2021/08/01,00:40,0.154,0.144,0.224,0.217,0.227,0.120,0.076,�k�k��,5.4,��
2021/08/01,00:50,0.155,0.144,0.226,0.218,0.224,0.120,0.076,�k�k��,5.8,��
2021/08/01,01:00,0.156,0.143,0.224,0.220,0.223,0.121,0.078,�k�k��,6.4,��
2021/08/01,01:10,0.154,0.144,0.224,0.218,0.227,0.121,0.077,�k�k��,5.9,��
2021/08/01,01:20,0.156,0.143,0.226,0.218,0.226,0.120,0.077,�k��,4.0,��
2021/08/01,01:30,0.157,0.144,0.224,0.219,0.224,0.120,0.077,�k��,3.4,��
2021/08/01,01:40,0.154,0.145,0.225,0.217,0.227,0.121,0.078,�k��,2.7,��
2021/08/01,01:50,0.154,0.144,0.227,0.217,0.226,0.120,0.077,�k��,2.8,��
2021/08/01,02:00,0.156,0.143,0.224,0.220,0.223,0.121,0.077,���k��,2.7,��
2021/08/01,02:10,0.156,0.144,0.226,0.217,0.225,0.121,0.077,���k��,2.6,��
2021/08/01,02:20,0.155,0.143,0.227,0.219,0.226,0.121,0.077,���k��,1.9,��
2021/08/01,02:30,0.156,0.144,0.225,0.220,0.224,0.122,0.077,���k��,2.0,��
2021/08/01,02:40,0.156,0.144,0.227,0.218,0.225,0.121,0.077,�k��,1.5,��
2021/08/01,02:50,0.155,0.143,0.225,0.219,0.226,0.121,0.077,���k��,1.9,��
2021/08/01,03:00,0.156,0.145,0.224,0.220,0.223,0.121,0.076,�k��,1.3,��
2021/08/01,03:10,0.155,0.145,0.227,0.218,0.225,0.122,0.078,�k�k��,0.8,��
2021/08/01,03:20,0.154,0.143,0.225,0.219,0.227,0.121,0.076,-,CALM,��
2021/08/01,03:30,0.156,0.145,0.224,0.220,0.225,0.121,0.077,-,CALM,��
2021/08/01,03:40,0.156,0.144,0.228,0.218,0.226,0.123,0.077,��쐼,1.3,��
2021/08/01,03:50,0.155,0.144,0.225,0.219,0.227,0.121,0.077,��쐼,2.6,��
2021/08/01,04:00,0.157,0.145,0.225,0.221,0.225,0.121,0.078,�쐼,2.9,��
2021/08/01,04:10,0.156,0.144,0.227,0.218,0.225,0.122,0.078,�쐼,2.8,��
2021/08/01,04:20,0.155,0.144,0.225,0.220,0.227,0.122,0.077,��쐼,2.9,��
2021/08/01,04:30,0.157,0.145,0.226,0.220,0.225,0.121,0.078,��,2.4,��
2021/08/01,04:40,0.156,0.143,0.227,0.217,0.226,0.123,0.078,��,4.3,��
2021/08/01,04:50,0.155,0.145,0.226,0.221,0.228,0.121,0.077,��,4.2,��
2021/08/01,05:00,0.157,0.144,0.226,0.221,0.225,0.122,0.078,��쐼,3.7,��
2021/08/01,05:10,0.157,0.144,0.227,0.218,0.225,0.122,0.078,��쐼,3.2,��
2021/08/01,05:20,0.156,0.145,0.225,0.221,0.227,0.122,0.077,��쐼,3.2,��
2021/08/01,05:30,0.157,0.144,0.227,0.221,0.225,0.122,0.078,�쐼,3.9,��
2021/08/01,05:40,0.156,0.144,0.227,0.218,0.226,0.123,0.078,�쐼,3.5,��
2021/08/01,05:50,0.156,0.144,0.225,0.222,0.228,0.123,0.078,��쐼,2.1,��
2021/08/01,06:00,0.157,0.144,0.228,0.220,0.226,0.122,0.077,��쐼,2.3,��
2021/08/01,06:10,0.158,0.145,0.227,0.218,0.225,0.123,0.078,��쐼,2.3,��
2021/08/01,06:20,0.155,0.144,0.226,0.221,0.225,0.122,0.077,��쐼,2.3,��
2021/08/01,06:30,0.157,0.144,0.228,0.221,0.225,0.121,0.077,���쐼,1.6,��
2021/08/01,06:40,0.157,0.144,0.226,0.220,0.228,0.124,0.078,���쐼,1.8,��
2021/08/01,06:50,0.156,0.144,0.226,0.218,0.227,0.123,0.078,���쐼,2.4,��
2021/08/01,07:00,0.154,0.146,0.226,0.217,0.225,0.122,0.077,�쐼,1.4,��
2021/08/01,07:10,0.156,0.145,0.228,0.219,0.224,0.122,0.078,��쐼,1.0,��
2021/08/01,07:20,0.158,0.144,0.228,0.222,0.224,0.123,0.078,�쐼,1.5,��
2021/08/01,07:30,0.157,0.144,0.227,0.222,0.224,0.123,0.077,���쐼,1.0,��
2021/08/01,07:40,0.157,0.144,0.225,0.220,0.223,0.123,0.079,-,CALM,��
2021/08/01,07:50,0.155,0.144,0.226,0.220,0.225,0.122,0.078,��쐼,0.9,��
2021/08/01,08:00,0.156,0.144,0.225,0.220,0.225,0.123,0.078,��,1.5,��
2021/08/01,08:10,0.156,0.144,0.226,0.219,0.225,0.123,0.078,��,2.2,��
2021/08/01,08:20,0.156,0.145,0.226,0.220,0.225,0.122,0.079,��쓌,3.0,��
2021/08/01,08:30,0.155,0.144,0.227,0.220,0.226,0.122,0.079,��쓌,3.9,��
2021/08/01,08:40,0.155,0.145,0.227,0.220,0.227,0.122,0.079,��쓌,3.4,��
2021/08/01,08:50,0.155,0.144,0.227,0.221,0.226,0.123,0.078,��,3.1,��
2021/08/01,09:00,0.155,0.146,0.228,0.220,0.227,0.122,0.078,��,3.0,��
2021/08/01,09:10,0.156,0.145,0.228,0.220,0.227,0.123,0.078,��쓌,3.7,��
2021/08/01,09:20,0.157,0.146,0.227,0.222,0.228,0.124,0.078,��쓌,4.1,��
2021/08/01,09:30,0.157,0.146,0.228,0.220,0.228,0.124,0.077,��,5.7,��
2021/08/01,09:40,0.157,0.146,0.228,0.220,0.228,0.123,0.077,��쓌,6.4,��
2021/08/01,09:50,0.157,0.146,0.227,0.222,0.229,0.123,0.078,��쓌,6.4,��
2021/08/01,10:00,0.157,0.145,0.230,0.221,0.227,0.122,0.078,��쓌,6.6,��
2021/08/01,10:10,0.157,0.145,0.228,0.222,0.227,0.123,0.078,��쓌,6.0,��
2021/08/01,10:20,0.159,0.145,0.229,0.222,0.228,0.124,0.078,��쓌,5.3,��
2021/08/01,10:30,0.157,0.145,0.229,0.222,0.229,0.123,0.078,��쓌,7.2,��
2021/08/01,10:40,0.157,0.145,0.229,0.222,0.229,0.125,0.078,��쓌,6.1,��
2021/08/01,10:50,0.157,0.147,0.229,0.223,0.227,0.124,0.079,��쓌,6.1,��
2021/08/01,11:00,0.157,0.146,0.228,0.222,0.228,0.123,0.079,��쓌,6.1,��
2021/08/01,11:10,0.158,0.146,0.229,0.221,0.228,0.124,0.079,��쓌,6.6,��
2021/08/01,11:20,0.158,0.147,0.229,0.222,0.228,0.124,0.078,��쓌,7.4,��
2021/08/01,11:30,0.157,0.147,0.230,0.222,0.228,0.124,0.078,��쓌,8.5,��
2021/08/01,11:40,0.158,0.146,0.228,0.222,0.229,0.123,0.079,��쓌,8.5,��
2021/08/01,11:50,0.157,0.146,0.230,0.223,0.229,0.124,0.078,��쓌,8.1,��
2021/08/01,12:00,0.158,0.147,0.230,0.222,0.228,0.123,0.079,��쓌,7.1,��
2021/08/01,12:10,0.157,0.146,0.228,0.222,0.227,0.124,0.078,��쓌,7.9,��
2021/08/01,12:20,0.157,0.146,0.229,0.222,0.227,0.123,0.077,��,7.9,��
2021/08/01,12:30,0.157,0.146,0.227,0.220,0.226,0.123,0.077,��쓌,7.8,��
2021/08/01,12:40,0.157,0.145,0.227,0.221,0.226,0.124,0.077,��쓌,7.6,��
2021/08/01,12:50,0.157,0.145,0.228,0.220,0.226,0.123,0.078,��쓌,7.0,��
2021/08/01,13:00,0.156,0.145,0.229,0.222,0.226,0.123,0.077,��,8.6,��
2021/08/01,13:10,0.156,0.146,0.229,0.223,0.227,0.124,0.077,��쓌,9.2,��
2021/08/01,13:20,0.157,0.146,0.229,0.222,0.227,0.123,0.078,��쓌,9.2,�L
2021/08/01,13:30,0.157,0.145,0.229,0.221,0.227,0.123,0.078,��쓌,9.2,��
2021/08/01,13:40,0.157,0.146,0.228,0.221,0.228,0.123,0.077,��쓌,9.0,�L
2021/08/01,13:50,0.157,0.146,0.228,0.221,0.228,0.124,0.077,��쓌,8.7,��
2021/08/01,14:00,0.159,0.145,0.228,0.220,0.227,0.123,0.077,��쓌,8.4,��
2021/08/01,14:10,0.160,0.147,0.228,0.224,0.226,0.124,0.078,��쓌,8.8,�L
2021/08/01,14:20,0.158,0.148,0.230,0.224,0.225,0.124,0.077,��쓌,7.7,��
2021/08/01,14:30,0.158,0.147,0.232,0.223,0.227,0.124,0.078,��,7.4,��
2021/08/01,14:40,0.157,0.146,0.231,0.223,0.227,0.123,0.078,��,7.9,��
2021/08/01,14:50,0.157,0.146,0.229,0.222,0.227,0.124,0.078,��쓌,7.5,��
2021/08/01,15:00,0.157,0.145,0.229,0.221,0.228,0.123,0.078,��,6.9,��
2021/08/01,15:10,0.158,0.145,0.229,0.220,0.229,0.124,0.079,��,6.7,��
2021/08/01,15:20,0.159,0.145,0.230,0.223,0.228,0.124,0.077,��,7.3,��
2021/08/01,15:30,0.157,0.145,0.228,0.222,0.228,0.124,0.078,��쓌,7.4,��
2021/08/01,15:40,0.156,0.146,0.229,0.220,0.228,0.124,0.078,��,6.5,��
2021/08/01,15:50,0.157,0.147,0.228,0.222,0.229,0.124,0.078,��,8.1,��
2021/08/01,16:00,0.157,0.145,0.229,0.221,0.228,0.123,0.078,��,7.8,��
2021/08/01,16:10,0.158,0.146,0.228,0.221,0.228,0.124,0.078,��,8.2,��
2021/08/01,16:20,0.157,0.145,0.228,0.220,0.228,0.124,0.077,��,8.6,��
2021/08/01,16:30,0.156,0.145,0.228,0.220,0.227,0.124,0.078,��,8.2,��
2021/08/01,16:40,0.157,0.145,0.227,0.220,0.227,0.124,0.077,��,7.2,��
2021/08/01,16:50,0.156,0.145,0.228,0.221,0.227,0.123,0.077,��,7.6,��
2021/08/01,17:00,0.156,0.145,0.227,0.220,0.226,0.123,0.078,��,7.0,��
2021/08/01,17:10,0.156,0.145,0.227,0.220,0.228,0.124,0.078,��,5.1,��
2021/08/01,17:20,0.155,0.144,0.228,0.220,0.227,0.123,0.078,��,5.8,��
2021/08/01,17:30,0.157,0.145,0.227,0.223,0.227,0.123,0.078,��,5.5,��
2021/08/01,17:40,0.159,0.146,0.229,0.225,0.227,0.123,0.078,��쐼,3.4,��
2021/08/01,17:50,0.158,0.146,0.231,0.223,0.226,0.124,0.078,��,1.2,��
2021/08/01,18:00,0.158,0.146,0.230,0.221,0.227,0.124,0.078,��,1.8,��
2021/08/01,18:10,0.156,0.146,0.228,0.220,0.226,0.125,0.078,��,3.2,��
2021/08/01,18:20,0.156,0.145,0.229,0.219,0.230,0.124,0.078,��,4.2,��
2021/08/01,18:30,0.156,0.146,0.227,0.223,0.231,0.123,0.079,��,4.8,��
2021/08/01,18:40,0.157,0.146,0.227,0.224,0.229,0.124,0.079,��,5.1,��
2021/08/01,18:50,0.159,0.147,0.231,0.223,0.227,0.124,0.077,��,4.9,��
2021/08/01,19:00,0.158,0.146,0.231,0.220,0.225,0.124,0.078,��쐼,3.7,��
2021/08/01,19:10,0.156,0.146,0.229,0.222,0.227,0.124,0.077,��쐼,3.1,��
2021/08/01,19:20,0.156,0.147,0.228,0.225,0.231,0.123,0.078,��,3.7,��
2021/08/01,19:30,0.159,0.146,0.229,0.223,0.229,0.124,0.078,��,5.5,��
2021/08/01,19:40,0.159,0.145,0.231,0.221,0.227,0.126,0.077,��,5.8,��
2021/08/01,19:50,0.158,0.145,0.230,0.220,0.227,0.124,0.078,��,6.1,��
2021/08/01,20:00,0.156,0.147,0.227,0.225,0.228,0.124,0.078,��쓌,5.1,��
2021/08/01,20:10,0.159,0.146,0.230,0.223,0.229,0.123,0.079,��쓌,7.1,��
2021/08/01,20:20,0.158,0.145,0.231,0.220,0.228,0.124,0.078,��,7.7,��
2021/08/01,20:30,0.158,0.144,0.230,0.219,0.225,0.124,0.077,��,6.9,��
2021/08/01,20:40,0.156,0.147,0.227,0.222,0.225,0.124,0.077,��,6.1,��
2021/08/01,20:50,0.157,0.146,0.227,0.223,0.229,0.123,0.078,��,4.9,��
2021/08/01,21:00,0.159,0.144,0.233,0.222,0.228,0.124,0.077,��,4.8,��
2021/08/01,21:10,0.159,0.144,0.229,0.220,0.226,0.125,0.078,��,5.1,��
2021/08/01,21:20,0.157,0.145,0.227,0.220,0.226,0.123,0.077,��,4.8,��
2021/08/01,21:30,0.156,0.146,0.227,0.224,0.229,0.124,0.078,��,6.1,��
2021/08/01,21:40,0.158,0.145,0.231,0.224,0.231,0.122,0.079,��,7.3,��
2021/08/01,21:50,0.159,0.144,0.231,0.221,0.227,0.123,0.078,��,7.6,��
2021/08/01,22:00,0.157,0.146,0.228,0.219,0.226,0.124,0.078,��,8.1,��
2021/08/01,22:10,0.157,0.146,0.227,0.222,0.227,0.124,0.078,��,6.8,��
2021/08/01,22:20,0.159,0.146,0.231,0.224,0.230,0.123,0.078,��,6.9,��
2021/08/01,22:30,0.160,0.144,0.231,0.222,0.230,0.124,0.079,��,7.3,��
2021/08/01,22:40,0.158,0.145,0.228,0.220,0.227,0.124,0.078,��,7.4,��
2021/08/01,22:50,0.155,0.148,0.227,0.221,0.227,0.125,0.077,��,6.5,��
2021/08/01,23:00,0.157,0.145,0.231,0.224,0.230,0.124,0.078,��,6.1,��
2021/08/01,23:10,0.158,0.145,0.230,0.222,0.230,0.123,0.078,��,6.6,��
2021/08/01,23:20,0.158,0.145,0.229,0.221,0.227,0.124,0.078,��,7.6,��
2021/08/01,23:30,0.157,0.147,0.229,0.223,0.226,0.125,0.078,��,7.4,��
2021/08/01,23:40,0.157,0.146,0.232,0.223,0.230,0.123,0.078,��,7.6,��
2021/08/01,23:50,0.159,0.145,0.229,0.221,0.229,0.123,0.077,��,7.2,��
